Regional Weather Roundup
Issued by NWS

Home | Current Version | Previous Version | Graphics & Text | Print | Product List | Glossary On
Versions: 1 2 3 4 5 6 7 8 9 10 11 12 13 14 15 16 17 18 19 20 21 22 23 24 25 26 27 28 29 30 31 32 33 34 35 36 37 38 39 40 41 42 43 44 45 46 47 48 49 50
000
ASUS45 KTFX 302304
RWRMT
MONTANA HOURLY WEATHER ROUNDUP
NATIONAL WEATHER SERVICE GREAT FALLS MT
404 PM MST FRI JAN 30 2015

NOTE: "FAIR" INDICATES FEW OR NO CLOUDS BELOW 12000 FEET WITH NO
SIGNIFICANT WEATHER AND/OR OBSTRUCTIONS TO VISIBILITY.

* THESE STATIONS ARE NOT UNDER NWS QUALITY CONTROL. THEY DO NOT
   REPORT WEATHER SUCH AS PRECIPITATION OR FOG.

MTZ001>007-043-310000-
WEST OF THE DIVIDE
CITY           SKY/WX    TMP DP  RH WIND       PRES   REMARKS
KALISPELL      FOG       21  19  92 S6        30.26F VSB M1/4 WCI  13
MISSOULA       FOG       34  25  70 CALM      30.23F
BUTTE          SUNNY     37  19  48 W7        30.15F WCI  32
MULLAN PASS    SUNNY     34  19  54 NW3       30.17F
* ANACONDA     SUNNY     39  21  48 N6         N/A   WCI  35
* ESSEX        N/A       34  21  59 SE3        N/A
* LINCOLN      N/A       41  18  39 S7G12      N/A
* LOOKOUT PASS N/A       38  23  55 N6G11      N/A   WCI  33
* POLSON       N/A       28  27  96 S1         N/A
* RONAN APT    SUNNY     25  25 100 N/A        N/A
* SEELEY LAKE  N/A       45  19  35 NW1        N/A
* THOMP F APT  SUNNY     36  11  35 NW9G22     N/A   WCI  29
* YAAK HILL    N/A       34  23  64 SE1G6      N/A
$$

MTZ008-052>055-310000-
SOUTHWEST MONTANA
CITY           SKY/WX    TMP DP  RH WIND       PRES   REMARKS
BOZEMAN        SUNNY     41  25  53 N3        30.16F
DILLON         SUNNY     43  14  31 CALM      30.13F
* W YELLOWSTON CLOUDY    31  16  54 W1         N/A
* THREE FORKS  SUNNY     46  27  48 N/A        N/A
* BOULDER HILL N/A       42  17  36 E1         N/A
* MONIDA PASS  N/A       17  15  92 W4         N/A
* RAYNOLDS PAS N/A       28  28 100 N4         N/A
* WHITEHALL    N/A       47  17  30 S3G11      N/A
* WISE RIVER   N/A       34  16  48 W8         N/A   WCI  27
$$

MTZ009>010-012-014-046-048-049-054-310000-
EAST SLOPES AND CENTRAL MONTANA
CITY           SKY/WX    TMP DP  RH WIND       PRES   REMARKS
CUT BANK       PTCLDY    48  16  28 S6        30.07F
GREAT FALLS    SUNNY     48  16  28 SW7       30.10F
HELENA         SUNNY     45  27  49 CALM      30.15F
MALMSTROM AFB  SUNNY     50  16  26 SW7       30.10F
* DEARBORN     N/A       49  18  29 S9         N/A
* EAST GLACIER N/A       41  16  36 W13G23     N/A
* MONARCH      N/A       45  10  24 NW6        N/A
* PENDROY      N/A       47   7  19 S10        N/A
* ROGERS PASS  N/A       35  14  42 E4G14      N/A
* SWEET GRASS  N/A       45  20  37 SE5        N/A
$$

MTZ011-013-016-021-035-040-045-047-050-051-310000-
NORTH CENTRAL MONTANA
CITY           SKY/WX    TMP DP  RH WIND       PRES   REMARKS
HAVRE          PTCLDY    46  19  34 CALM      30.13F
LEWISTOWN      SUNNY     48  10  21 NE5       30.11F
* N BAR RANCH  SUNNY     45   9  23 S8        30.13F
* CHESTER      N/A       46  25  44 S2         N/A
* DENTON       N/A       48  11  22 SE2        N/A
* GEYSER       N/A       51  10  19 NE2        N/A
* JUDITH GAP   N/A       47   6  18 SE9G14     N/A
* LOMA         N/A       46  28  50 E6         N/A
$$

MTZ017>020-022>027-061-062-310000-
NORTHEAST MONTANA
CITY           SKY/WX    TMP DP  RH WIND       PRES   REMARKS
GLASGOW        PTCLDY    39  30  70 N6        30.18S WCI  35
GLENDIVE       SUNNY     43  27  53 N6        30.18F
JORDAN         SUNNY     45  27  49 CALM      30.16F
SIDNEY         PTCLDY    41  28  60 CALM      30.20S
WOLF POINT     PTCLDY    43  30  60 W5        30.19F
* BEAVER HILL  N/A       42  25  51 N9         N/A
* CIRCLE       N/A       44  32  63 N/A        N/A
* LINDSAY DVD  N/A       42  25  51 N4         N/A
* NAVAJO       N/A       36  26  67 N9         N/A   WCI  29
* SACO         N/A       38  29  70 N4         N/A
$$

MTZ028>042-056>058-310000-
SOUTHCENTRAL AND SOUTHEAST MONTANA
CITY           SKY/WX    TMP DP  RH WIND       PRES   REMARKS
BAKER          SUNNY     43  27  53 N6        30.16F
BILLINGS       PTCLDY    48  18  30 SE3       30.13F
LIVINGSTON     SUNNY     46  16  30 W5        30.13S
MILES CITY     SUNNY     46  27  48 CALM      30.16F
* LAUREL APT   PTCLDY    50  18  28 N/A        N/A
* ROUNDUP APT  SUNNY     48  14  25 NE6        N/A
* ALZADA       N/A       46  23  40 NW5        N/A
* HYSHAM       N/A       45  14  28 N2         N/A
* LAME DEER    N/A       43  16  34 N1         N/A
* REED POINT   N/A       44  14  30 SE2        N/A
* ROSCOE HILL  N/A       42  12  29 E6         N/A
$$

REGIONAL REPORTS...DAKOTAS
CITY           SKY/WX    TMP DP  RH WIND       PRES   REMARKS
WILLISTON      SUNNY     39  27  62 NW6       30.18S WCI  35
DICKINSON      SUNNY     43  25  49 NW10      30.13S
CROSBY         CLOUDY    28  28 100 N14       30.20R WCI  17
WATFORD CITY   SUNNY     37  27  67 NW8       30.15S WCI  31
BISMARCK       SUNNY     43  27  53 N10       30.14R
GRAND FORKS    PTCLDY    34  23  64 NW6       30.10S WCI  29
FARGO          SUNNY     32  25  75 S9        30.13S WCI  24
BUFFALO SD     PTCLDY    46  25  44 N10       30.08S
RAPID CITY     PTCLDY    48  27  44 N17       30.12S
$$

REGIONAL REPORTS...WYOMING/IDAHO/WASHINGTON
CITY           SKY/WX    TMP DP  RH WIND       PRES   REMARKS
GILLETTE       PTCLDY    45  21  38 N9        30.15S
SHERIDAN       PTSUNNY   48  18  30 NE5       30.14F
CODY           CLOUDY    39  27  62 N3        30.14S
YELLOWSTONE LA CLOUDY    10   5  80 CALM      30.15F
SALMON         CLOUDY    28  19  69 N5        30.26F WCI  22
MULLAN PASS    SUNNY     34  19  54 NW3       30.17S
SAND POINT     CLOUDY    32  30  92 CALM      30.28F
SPOKANE        FOG       30  28  92 S6        30.27F VSB M1/4 WCI  24
$$

REGIONAL REPORTS...SASKATCHEWAN
CITY           SKY/WX    TMP DP  RH WIND       PRES   REMARKS
SWIFT CURRENT  FOG       28  28 100 N8        30.18S VSB 1/2  WCI  20

$$



USA.gov is the U.S. government's official web portal to all federal, state and local government web resources and services.